JIELONG 3 R/B, 67753

Orbit data source: Space-Track

JIELONG 3 R/B, 67753 is space debris in SSO originally from a Chinese launch on Thu, 12 Feb 2026 UTC launched from the South China Sea Launch Area (SCSLA). Debris objects in space refer to the collection of defunct objects orbiting the Earth. Examples of debris include non-operational satellites, rocket bodies, and fragments generated from explosions, collisions, or faulty payload assembly.

Loading next visibility...
Identifier
67753, 2026-027H
Orbit
SSO
Country
Flag of CNCN / PRC
Related business
None
Manufacturer
Unknown
Mission
Spacecraft
Bus & Motor
Unknown
Mass
Unknown
Launch date (UTC)
2026-02-12 (1 month ago)
Launch vehicle
Unknown
Launch site
South China Sea Launch Area (SCSLA)
Object type
Payload
Rocket body
Debris
Shape & HBR
Unknown
Radar Cross Section
RCS unknown

Expand to show TLE details & history
Last TLE update: 10 hours ago

TLE from 10 hours ago
0 JIELONG 3 R/B
1 67753U 26027H   26071.93337300  .00645225  23580-5  75838-3 0  9990
2 67753  97.5106 203.2433 0200535 233.0885 125.1864 15.80005378  4490
Epoch: 2026-03-12T22:24Z
TLE epoch observation values (Epoch: 2026-03-12T22:24:03.427Z)
Latitude
-0.00002°
Longitude
56.65287°
Altitude
412.905 km
Speed
7.618 km/s
True Right ascension
13h 32m 58s
True Declination
0° 00' 00"
Sunlit
Object was in full shadow at epoch
Visualization orbit readout
Latitude
Unknown
Longitude
Unknown
Altitude
Unknown
Speed
Unknown
Apparent Right ascension
Unknown
Apparent Declination
Unknown
Sunlit
N/A
Visualization observer readout
Local Sidereal Time
13:06:20
Azimuth
Unknown
Elevation
Unknown
Doppler factor
Unknown
Orbital elements
Apogee altitude
461.782 km
Perigee altitude
192.847 km
Semi-major axis
6,705.451 km
Eccentricity
0.02005
Inclination
97.5106°
RAAN
203.2433°
Arg. of periapsis
233.0885°
True anomaly
127.0374°
Mean anomaly
125.1864°
Eccentric anomaly
126.11459°
Mean motion
3.95277 °/min
Orbital period
91.08 mins
BSTAR
0.00075838
Loading maneuver chart data...
Computing Atmospheric mass density...
Loading historical data...
Loading historical data...
Loading historical data...
Loading historical data...
Loading historical data...
Loading historical data...
Loading historical data...

Documentation

Showing up to 5 results
|